Theta_e
305 305 305 305 304 302 302 302 301 301 301 301 301 301 301 301 301 301 302 302 302 302 302 302 302 303 303 303 303 303 303 303 304 304 305 309 309 308 308 309 308 307 309 312 312 311 311 310 310 309 309 314 317 318 318 319 319 317 317 317 317 317 316 317 320 316 314 316 316 315 315 317 316 324 339 345 345 345 344 344 344 344 344 344 344 346 348 348
305 305 305 305 304 302 301 301 301 301 301 301 301 301 301 301 301 301 301 301 301 301 301 302 302 302 302 302 302 303 303 303 303 304 307 309 308 308 307 308 308 308 308 310 311 310 309 309 309 308 309 314 318 318 318 319 319 317 317 317 317 317 315 315 316 314 314 315 314 314 315 316 315 316 328 347 347 345 350 348 345 346 346 346 346 347 349 347
304 304 304 305 304 303 302 301 301 300 300 300 300 301 301 300 300 301 301 301 301 301 301 301 302 302 302 302 302 302 302 303 303 305 308 308 308 308 307 307 308 309 311 312 311 310 309 308 308 308 310 316 318 318 317 317 317 316 315 316 317 315 314 314 314 314 315 315 313 314 315 315 316 316 328 346 346 346 354 351 346 346 347 347 347 348 349 346
304 304 304 304 304 302 302 301 300 300 300 300 300 300 300 300 300 300 300 300 300 300 300 301 301 301 301 301 302 302 302 302 304 306 308 308 308 308 307 307 307 309 313 314 311 309 308 308 308 309 314 318 318 318 317 316 315 314 314 316 316 313 314 315 315 316 316 315 314 314 316 317 315 318 332 342 345 348 347 345 343 345 346 347 349 349 348 347
303 304 304 304 303 301 301 300 300 300 300 300 300 300 300 300 300 300 300 300 300 300 300 300 301 301 301 301 301 301 301 304 308 311 312 312 310 308 308 307 307 308 311 314 312 308 308 309 308 310 316 318 317 318 318 317 315 314 313 314 314 312 314 315 315 316 316 316 315 314 316 318 315 319 331 338 348 351 342 337 336 339 343 345 348 349 348 346
303 303 304 304 303 301 301 300 300 300 300 300 299 299 299 299 299 299 299 300 300 300 300 300 300 300 300 301 301 301 301 305 312 316 315 314 313 310 308 307 307 308 311 314 312 308 308 309 310 312 315 316 317 318 317 317 316 316 315 313 313 313 313 314 315 315 316 316 315 315 316 316 315 318 322 324 332 336 331 332 336 339 341 343 347 349 348 347
303 303 303 303 302 301 301 300 299 299 299 299 299 299 299 299 299 299 299 299 299 300 299 300 300 300 300 300 300 301 302 304 309 315 315 314 314 311 309 308 306 308 312 314 312 309 308 310 312 313 315 317 317 316 317 317 315 316 316 314 314 314 312 314 315 314 316 315 315 316 316 316 316 316 316 317 320 325 329 334 338 341 343 346 348 349 348 348
302 303 303 303 301 300 300 299 299 299 298 299 299 298 298 299 299 299 299 299 299 299 299 300 300 300 300 300 300 301 303 305 307 311 312 312 313 312 309 307 306 308 311 312 311 309 309 311 313 314 315 317 316 316 316 316 314 314 315 314 314 315 314 315 314 314 315 314 315 316 316 317 316 316 315 317 323 328 331 337 341 343 346 348 348 348 348 347
302 302 303 303 302 301 300 299 298 298 298 298 298 298 298 298 298 299 299 299 299 299 299 300 299 300 300 300 301 302 303 306 307 307 309 311 313 313 311 309 307 309 310 311 311 309 310 312 314 315 317 316 316 315 315 316 316 314 314 314 313 314 315 315 313 313 314 314 315 315 316 316 315 317 314 319 331 334 336 341 343 345 346 348 348 348 348 347
302 302 303 303 302 300 299 299 298 298 298 298 298 298 298 298 299 298 298 298 299 299 299 299 299 300 299 300 301 302 305 308 309 309 309 312 313 313 312 312 311 311 311 311 311 310 311 313 315 316 317 317 316 315 315 315 316 314 313 313 312 313 313 313 313 313 314 314 315 315 317 316 314 315 314 328 340 339 340 345 344 345 347 347 348 347 347 347
301 302 302 303 302 300 299 298 298 298 298 298 298 298 298 298 298 298 298 298 298 298 299 299 299 299 300 301 301 303 305 309 313 313 313 315 314 312 311 311 312 312 312 311 310 310 312 314 317 318 317 316 315 314 315 315 315 313 312 312 312 311 312 312 312 313 314 314 315 315 316 314 314 315 314 330 342 340 341 346 345 346 347 346 346 346 347 347
301 302 302 302 301 300 299 298 298 298 298 298 298 298 298 298 298 298 298 298 298 298 298 299 299 299 299 300 302 305 305 310 316 317 316 317 315 313 311 310 310 311 311 311 309 309 311 315 318 319 317 315 313 313 314 314 313 313 312 314 315 313 312 313 312 313 314 315 316 314 315 315 315 315 314 329 342 342 342 345 346 346 347 347 346 345 346 346
300 302 302 301 300 299 299 298 298 298 298 298 298 298 298 298 298 298 298 297 297 298 298 299 298 299 299 300 303 306 306 310 316 318 317 317 316 314 312 310 310 309 309 311 310 308 311 316 319 319 318 314 313 313 313 313 312 313 313 313 314 314 315 313 312 313 314 315 316 314 314 316 317 314 314 329 341 344 345 346 346 348 348 347 347 346 346 346
301 302 302 302 300 299 298 298 298 298 298 298 298 298 298 298 298 297 297 297 297 298 298 298 298 298 299 302 304 305 304 305 313 317 317 316 316 315 314 311 310 309 308 310 310 309 312 317 318 317 316 314 313 312 313 313 313 315 312 313 314 312 316 315 311 314 314 314 316 315 314 315 317 313 313 329 341 343 345 346 346 347 348 347 347 346 346 346
301 302 302 302 300 299 298 298 298 298 298 298 298 298 298 297 297 297 297 297 297 298 298 298 299 299 301 304 303 305 305 304 311 316 318 316 316 317 315 311 309 309 310 311 310 309 313 317 317 315 313 313 313 314 315 315 318 318 312 317 319 312 315 317 311 313 314 315 314 314 316 315 317 314 311 328 341 342 343 345 346 346 347 347 347 347 346 346
300 301 302 301 299 299 298 298 298 298 298 298 298 298 297 297 297 297 297 297 297 297 297 300 301 302 305 307 303 305 306 306 310 313 316 316 316 317 315 312 311 312 312 311 310 309 314 316 315 314 313 313 314 315 317 315 320 322 315 318 320 312 314 316 312 312 312 315 314 313 316 316 318 314 311 329 341 341 342 343 345 345 346 346 347 348 347 347
300 301 302 301 299 298 298 298 298 297 298 298 297 297 297 297 297 297 297 298 299 299 300 307 308 304 307 308 305 307 306 306 308 310 314 314 314 316 314 313 313 313 312 311 310 309 313 315 314 315 314 314 316 316 316 313 317 322 319 319 319 314 314 314 314 313 310 314 314 314 316 315 318 313 312 330 342 340 340 342 344 344 345 346 346 348 348 347
301 301 301 300 299 298 297 297 297 297 297 297 297 297 297 297 297 297 297 299 302 303 303 308 309 308 310 307 306 309 309 309 308 309 312 311 313 315 314 314 314 314 313 311 311 311 313 313 313 317 315 313 315 315 316 316 317 318 318 319 318 316 314 314 315 314 312 314 314 314 315 315 316 313 311 322 336 340 339 339 342 343 344 345 346 347 348 348
301 301 301 299 298 298 297 297 297 296 296 296 297 297 298 300 300 299 299 300 302 304 305 307 308 310 311 308 307 310 311 311 310 310 311 310 313 315 314 314 315 314 312 313 313 313 313 312 312 316 315 314 314 314 315 317 317 316 315 315 316 314 314 314 314 315 314 313 315 314 315 316 314 315 313 315 326 335 338 338 339 342 343 344 346 346 347 347
300 300 299 298 298 297 297 297 296 296 296 296 297 296 299 307 311 310 307 304 302 303 304 306 306 307 309 309 309 310 311 312 312 311 311 311 313 315 314 314 315 314 313 316 316 313 313 315 315 316 316 317 317 316 315 315 314 313 314 314 314 312 313 314 314 316 314 313 316 314 314 315 314 320 319 315 324 332 334 338 338 341 342 342 344 344 346 346
300 300 298 297 297 297 297 296 296 296 296 296 296 296 300 308 314 312 309 307 306 305 304 304 305 306 307 307 308 310 311 312 312 311 311 313 314 315 314 314 314 315 314 314 315 314 313 316 318 318 318 318 320 320 317 314 313 313 313 314 313 313 313 314 314 316 314 314 317 314 313 314 315 322 321 319 329 334 333 336 337 340 341 340 341 341 343 345
300 299 299 297 297 296 296 296 296 296 296 296 296 296 298 303 306 306 305 306 307 308 308 307 307 307 307 307 308 309 310 312 312 311 311 314 315 314 314 314 314 315 314 313 315 315 315 317 319 316 314 314 317 320 318 315 315 315 314 314 315 315 315 315 318 320 315 314 319 315 312 314 318 324 323 319 322 327 332 335 335 338 339 339 339 339 340 342
299 298 298 297 296 296 295 296 296 296 296 296 296 298 301 304 306 306 305 305 307 308 308 309 309 309 309 309 309 309 310 312 313 312 311 313 314 314 314 314 314 315 314 315 317 316 316 318 316 312 312 313 314 316 316 314 315 317 315 314 316 316 314 316 321 322 317 315 319 318 317 325 329 327 323 317 314 318 327 333 334 336 337 337 337 338 338 339
299 298 297 296 296 296 296 296 296 296 296 297 299 303 305 307 308 307 306 307 309 309 307 308 309 309 310 309 310 310 311 313 313 313 311 311 313 313 313 313 313 314 313 315 317 316 316 316 313 311 313 315 314 314 315 313 315 320 319 314 314 315 313 315 319 321 323 322 321 321 325 335 335 324 319 319 320 322 325 327 331 333 334 335 335 335 336 336
299 298 297 296 296 297 296 296 296 297 299 302 304 306 307 308 309 308 308 311 313 311 309 308 308 309 310 310 311 311 311 312 313 313 312 310 311 313 313 312 313 314 313 314 315 316 315 313 312 313 313 313 313 314 316 315 316 319 320 316 314 315 314 315 318 321 324 323 319 318 321 326 328 323 319 320 324 327 327 328 330 330 331 332 333 333 334 334
299 298 298 296 296 296 296 297 299 301 304 307 306 306 307 308 309 307 309 315 317 312 309 309 308 308 310 310 311 312 312 313 313 313 312 310 311 313 312 311 313 314 313 313 314 315 315 313 313 315 314 312 312 313 314 315 315 315 320 320 315 315 315 316 319 321 321 319 317 318 318 319 323 325 323 323 325 328 330 330 330 330 330 329 330 331 332 333
299 298 298 296 296 296 296 297 301 305 306 307 306 306 307 309 309 308 310 317 318 313 309 308 308 308 310 310 310 312 314 313 313 313 312 310 311 313 313 311 312 312 311 313 314 315 315 315 315 315 314 313 313 313 313 314 314 317 323 322 317 316 316 319 322 320 319 319 320 323 324 321 320 324 326 324 326 330 332 332 331 331 330 330 331 331 332 333
298 298 297 296 295 296 297 297 300 304 305 306 306 306 308 309 309 310 314 318 317 311 309 308 308 309 309 311 311 311 314 314 313 313 312 311 310 312 312 311 312 312 311 314 316 315 316 317 317 315 314 313 314 314 314 313 314 319 322 318 317 317 316 321 322 321 322 319 318 324 325 317 318 327 329 327 330 332 333 333 331 331 331 331 332 332 333 334
298 297 296 296 295 296 297 297 299 303 305 306 306 306 307 308 308 311 315 318 314 309 309 308 308 309 310 311 311 311 312 312 313 313 311 310 310 312 312 310 310 311 310 313 315 314 314 316 316 315 315 315 315 314 313 313 314 317 317 315 317 319 319 323 322 322 326 320 318 325 322 315 320 330 332 331 332 331 332 333 331 330 331 331 332 332 333 334
297 296 296 295 296 296 297 297 298 302 304 306 307 307 306 308 311 313 313 315 314 311 309 308 308 309 311 311 311 311 311 311 312 310 309 310 311 311 312 310 310 312 313 312 313 313 312 313 313 313 315 315 315 313 311 313 313 314 315 314 317 322 326 331 331 327 321 319 325 329 323 319 325 332 332 330 331 330 331 333 330 329 330 330 331 331 332 333
296 296 295 295 296 296 297 297 299 303 305 306 307 307 307 310 313 315 315 314 315 313 308 308 309 309 311 311 310 310 310 310 310 310 310 310 310 311 312 312 310 313 315 313 313 314 312 312 313 314 314 313 314 313 311 311 312 314 318 316 316 322 324 328 331 325 317 321 331 327 322 324 329 332 330 328 330 330 331 332 329 329 328 328 329 329 330 331
295 296 295 295 296 296 298 299 302 305 306 307 307 307 310 311 312 315 318 316 315 315 311 309 309 310 310 310 310 310 310 311 310 310 311 311 311 311 313 317 316 313 314 315 317 317 315 314 314 314 314 313 314 314 312 311 312 314 319 320 318 319 318 320 324 323 321 323 323 319 322 330 330 328 328 327 328 328 328 329 328 328 327 327 327 328 328 330
295 295 295 295 296 296 296 299 305 307 307 307 307 309 311 312 313 316 317 316 315 316 316 313 309 310 310 309 310 310 310 311 310 310 311 312 312 311 312 316 317 315 319 320 318 316 317 316 314 313 314 314 314 315 315 315 314 313 318 321 320 319 317 317 319 319 320 319 316 316 321 330 330 327 327 326 326 326 326 327 327 327 327 328 327 328 327 327
295 295 296 296 296 297 296 298 305 308 307 307 308 311 312 312 316 319 317 316 315 315 316 313 310 310 309 310 311 310 310 311 310 310 311 312 313 313 313 312 312 316 320 319 315 315 317 317 318 315 313 314 314 315 317 318 315 313 316 318 319 324 323 320 321 320 319 318 320 320 319 326 332 329 326 326 325 326 327 327 327 327 327 328 327 328 328 327
296 295 297 296 296 297 296 297 304 307 306 307 310 313 313 313 317 321 318 314 312 311 311 311 311 311 310 310 311 310 311 312 310 310 311 313 314 316 315 312 312 315 316 317 317 315 314 318 323 317 312 313 315 314 315 316 316 313 313 315 316 323 326 322 322 324 325 322 321 324 323 323 328 327 324 326 326 326 327 327 327 327 326 326 326 326 326 326
297 297 298 297 297 299 297 297 304 307 307 309 311 312 313 315 316 318 316 313 311 310 309 310 311 312 311 312 312 311 312 314 312 309 309 311 312 313 314 313 312 312 315 320 321 317 314 318 323 316 312 314 314 315 314 314 318 316 314 316 316 317 321 321 317 319 323 320 315 321 328 326 326 328 326 326 327 327 327 327 327 326 325 324 324 324 324 324
299 299 299 298 300 302 299 297 304 307 307 310 312 312 314 316 314 314 314 313 312 309 309 311 312 312 313 313 313 312 312 313 312 309 310 311 312 313 312 312 311 311 313 316 318 320 318 319 322 316 313 315 312 313 315 312 317 319 315 316 315 312 318 323 323 322 322 319 315 322 331 329 328 330 326 326 329 328 327 327 326 325 324 323 322 323 323 324
301 304 305 302 303 304 299 298 304 307 308 311 313 314 315 316 314 312 312 312 310 308 310 313 312 311 314 315 313 312 312 313 312 311 311 311 313 314 311 311 311 310 311 311 314 318 316 317 323 319 314 315 313 314 316 312 313 316 316 315 315 316 319 319 320 321 319 318 317 321 326 328 329 329 327 329 330 328 327 325 324 324 323 322 320 320 322 323
304 308 310 306 305 304 299 299 304 307 310 312 313 314 314 313 312 311 310 309 309 309 310 312 312 312 313 314 313 311 312 313 314 313 311 309 312 315 313 313 313 309 308 310 313 318 317 316 322 321 315 314 315 317 320 317 313 314 314 313 315 323 325 318 317 319 319 320 319 320 325 329 328 326 327 330 328 327 327 324 323 322 320 319 318 317 319 320
306 308 310 309 307 303 299 301 306 309 311 312 312 313 311 309 309 308 309 308 308 310 310 310 314 315 312 312 312 310 311 313 313 314 316 314 315 317 316 315 318 314 308 308 313 317 315 313 320 325 319 316 317 318 320 320 316 314 316 314 314 318 319 317 318 317 318 324 325 325 329 329 325 324 326 329 327 325 324 323 321 320 317 316 315 315 316 318
307 309 311 310 305 300 300 305 309 311 312 312 311 310 307 307 308 307 309 309 307 308 309 310 314 314 311 312 311 309 311 313 314 317 321 321 320 320 317 316 318 316 309 309 315 316 314 316 322 325 318 316 320 319 316 318 317 316 319 319 316 317 318 318 319 317 318 323 323 327 333 327 323 324 325 326 325 322 322 321 319 318 315 314 313 313 314 316
308 310 312 309 302 300 304 309 310 310 311 311 310 308 307 307 308 307 308 310 308 308 309 310 312 312 311 311 310 309 312 314 317 321 322 322 321 320 319 318 316 316 314 316 319 320 321 321 319 317 314 315 318 318 317 319 321 321 323 323 321 320 322 322 322 322 321 319 318 327 334 326 322 324 323 321 321 320 319 319 317 315 313 312 311 312 313 314
308 309 311 307 301 303 307 306 307 308 309 309 308 306 306 307 308 308 309 310 309 310 310 309 311 312 311 310 310 311 313 314 317 321 321 322 321 319 319 319 319 322 325 324 322 321 322 321 317 315 318 318 318 320 320 321 325 327 327 327 324 322 325 327 328 330 327 322 322 330 332 324 322 322 320 319 318 316 315 315 314 312 311 311 310 311 312 313
306 307 310 306 303 306 307 307 309 310 311 311 309 309 308 308 308 308 309 310 310 311 312 311 310 311 312 312 311 312 314 315 315 316 320 323 321 319 320 321 323 327 327 324 323 320 318 320 321 318 317 316 316 320 322 323 327 328 328 327 324 322 324 323 324 330 328 322 324 331 330 324 322 320 318 317 315 313 313 312 311 310 310 309 309 310 311 311
306 308 310 308 306 308 308 310 313 313 313 314 315 314 313 311 310 309 310 310 309 310 312 312 310 310 313 314 312 313 315 316 315 316 320 323 321 318 319 321 324 327 327 322 322 322 321 322 325 323 320 319 322 326 327 326 326 326 326 327 326 325 323 319 322 329 327 320 323 330 327 322 320 318 317 316 313 312 311 310 309 309 308 308 308 308 309 309
307 309 311 310 309 309 309 310 311 313 315 315 315 316 314 314 313 310 309 310 309 309 310 310 310 312 315 315 314 314 315 316 317 319 322 323 322 318 317 320 322 325 326 321 318 325 328 323 323 326 324 324 328 328 325 326 330 330 326 327 328 325 324 325 328 327 324 324 326 327 323 321 321 318 316 314 312 310 310 309 308 308 308 308 307 307 308 308
308 310 311 311 311 310 310 310 310 313 314 313 314 315 314 315 315 311 310 310 309 309 310 309 311 312 313 314 314 314 315 319 320 320 320 320 320 319 317 317 319 320 323 320 317 327 334 326 321 323 321 321 323 322 321 323 328 327 325 325 324 323 328 334 331 322 321 326 328 323 321 322 321 317 314 312 310 309 308 308 307 307 306 307 307 307 307 309
309 309 309 311 312 311 311 311 311 313 313 312 314 315 314 316 315 312 311 311 311 311 312 312 312 312 312 314 318 317 316 320 321 318 320 320 320 323 321 317 317 316 320 322 319 324 333 327 320 321 319 318 319 319 319 320 319 317 319 320 319 320 326 329 324 318 320 326 328 323 321 320 317 314 312 310 308 308 307 306 306 306 306 306 306 306 306 307
309 309 309 310 312 311 311 310 310 312 313 313 315 315 314 316 315 312 312 314 315 313 312 313 312 312 313 315 321 319 315 319 321 317 319 320 318 324 324 319 317 315 320 327 322 320 326 325 319 319 320 318 318 318 318 319 318 316 316 316 316 316 318 319 318 318 320 324 325 321 317 314 312 310 309 308 307 306 305 305 305 305 305 306 305 305 304 305
308 310 309 310 311 310 310 310 311 313 315 314 315 317 315 314 316 314 311 313 315 312 312 314 313 312 312 313 317 317 314 318 321 317 318 320 319 322 322 319 318 318 321 328 324 319 322 322 318 320 321 318 316 316 316 317 318 317 316 315 315 316 316 317 318 318 319 319 317 315 314 311 308 307 307 306 306 305 304 304 304 304 304 304 304 304 303 304
308 309 309 310 313 312 311 311 311 314 316 313 314 317 315 313 314 313 310 309 311 312 313 315 315 314 314 313 315 314 312 315 317 313 315 318 315 316 318 316 317 322 324 325 324 324 325 322 319 322 324 319 316 315 316 316 317 318 317 315 315 317 316 315 315 316 317 316 314 315 315 311 307 306 306 305 305 305 304 303 303 303 303 303 303 303 303 303
307 308 309 311 313 313 312 311 311 313 316 315 315 315 313 312 313 313 313 310 308 310 311 312 314 316 315 314 313 312 310 311 312 309 310 312 311 312 314 313 314 321 325 324 323 324 324 322 321 324 325 320 316 317 319 319 320 320 316 313 314 315 315 314 313 313 314 314 315 316 314 309 306 306 305 304 304 304 303 303 303 302 302 302 302 302 303 303
Wind_Speed
11 11 10 10 10 11 11 11 11 12 12 12 12 12 12 12 12 12 13 13 13 12 12 13 13 13 13 13 13 14 16 16 16 19 24 24 19 16 15 13 13 14 14 14 14 14 15 16 16 15 14 13 10 10 12 11 8 6 2 2 2 3 4 4 6 4 1 3 7 9 8 6 4 7 12 12 12 13 9 6 6 4 5 16 11 14 28 24
11 11 11 10 11 11 12 12 11 11 12 12 12 12 12 12 13 13 14 14 13 13 13 14 14 13 13 13 13 14 16 17 18 22 26 22 17 15 16 15 15 17 16 15 16 15 15 16 17 17 16 12 8 8 9 9 10 8 2 2 4 4 5 5 6 5 3 5 9 12 10 6 4 4 7 5 3 6 7 6 8 10 12 14 13 23 28 25
11 11 11 11 11 11 12 12 12 12 13 13 13 13 12 13 13 13 13 13 13 13 14 14 14 13 12 11 12 14 15 16 19 25 25 19 18 17 15 17 18 19 16 12 12 14 14 13 16 16 15 11 8 9 7 6 9 9 4 2 5 6 5 10 12 14 16 12 9 9 9 6 5 5 5 6 4 2 3 5 6 11 15 17 23 28 27 27
12 12 12 12 11 11 12 12 12 12 13 14 14 13 13 13 13 13 13 13 13 13 14 15 14 13 11 11 11 11 12 14 17 22 19 14 17 19 18 18 18 19 17 12 10 11 12 12 14 15 12 7 6 7 5 7 7 5 6 4 5 5 4 13 15 17 21 16 9 6 4 6 6 6 8 11 7 3 5 12 10 13 20 25 30 29 28 29
12 12 12 12 12 12 13 12 12 13 13 14 14 14 14 13 13 13 13 13 13 14 14 15 14 12 11 10 9 8 7 7 7 10 9 9 15 19 19 19 18 19 19 16 12 11 13 13 14 14 9 4 3 4 5 12 9 2 4 5 5 4 4 12 12 11 16 17 12 5 1 3 6 5 12 12 6 3 8 12 12 16 22 26 30 30 30 29
13 13 12 12 12 12 13 13 13 13 14 14 14 15 14 13 13 12 13 14 14 14 15 15 13 11 11 9 9 7 3 2 2 3 4 5 9 14 17 20 20 18 18 17 14 14 15 14 14 13 8 2 4 5 5 11 10 3 4 5 8 9 8 14 11 10 14 13 11 5 1 2 4 2 10 10 5 5 7 8 10 16 21 25 29 31 31 30
13 13 13 12 12 12 13 13 13 14 15 15 15 15 14 14 12 12 13 14 15 15 15 15 13 11 10 9 9 8 10 15 10 4 4 1 3 8 14 20 21 19 18 18 16 16 16 16 16 13 6 2 4 7 8 9 7 4 4 5 11 14 14 20 19 17 17 14 15 9 3 2 3 4 5 7 4 8 10 8 12 19 24 27 30 32 32 31
13 12 13 12 12 13 13 13 13 14 15 15 15 15 14 14 13 12 13 14 15 15 15 15 12 11 10 9 9 8 14 19 12 7 8 4 1 4 10 18 20 19 18 17 18 18 18 19 18 13 5 3 5 5 7 7 3 5 6 6 11 14 19 26 24 24 24 21 21 12 5 7 6 4 3 3 3 10 13 11 17 24 27 30 31 32 32 31
13 12 13 12 12 13 13 13 13 14 15 14 14 14 15 14 13 12 12 13 14 15 16 14 12 11 9 9 7 6 16 18 11 10 12 8 4 4 8 14 17 17 17 16 17 17 19 21 21 16 7 6 7 4 5 4 3 6 10 10 9 13 20 23 19 20 22 20 17 8 5 10 9 2 6 7 6 11 14 15 21 26 28 29 30 31 32 31
14 13 13 13 13 13 13 14 14 14 15 14 14 14 15 14 13 13 13 13 13 15 15 13 12 11 10 10 5 4 13 14 10 12 12 9 7 7 8 10 12 13 14 15 16 19 23 23 21 16 7 5 7 7 6 6 4 6 9 10 11 16 21 18 15 17 17 15 14 8 6 12 8 4 4 3 11 14 16 20 23 25 28 29 30 31 31 31
15 13 13 13 13 13 14 14 14 14 15 15 14 15 15 14 13 13 13 12 13 14 14 13 11 11 10 10 9 8 10 9 8 11 10 9 9 8 7 7 8 9 10 14 18 24 26 22 15 9 4 4 4 5 8 7 5 6 6 6 10 13 15 14 12 13 10 7 14 12 6 8 4 4 6 9 16 17 19 23 24 26 27 27 28 29 31 31
15 14 13 13 13 13 14 14 14 14 15 15 15 16 16 14 13 13 12 12 13 13 14 12 10 11 10 11 18 17 10 7 7 11 11 10 9 8 7 8 9 9 10 12 17 24 26 19 13 8 4 3 2 2 5 5 5 7 4 4 8 6 6 9 7 9 9 4 10 10 2 5 3 6 9 15 20 20 23 25 26 27 26 27 27 28 30 31
14 13 14 13 13 14 14 14 14 15 16 16 15 16 16 15 14 13 12 12 13 12 12 11 10 12 9 13 22 17 10 10 9 11 12 11 10 10 9 10 12 12 12 12 13 19 24 19 14 11 8 4 2 2 4 6 4 5 1 2 4 6 5 6 3 6 9 5 10 10 2 7 6 11 10 17 24 23 23 25 26 27 26 26 27 28 30 31
14 14 14 13 14 14 14 14 14 15 15 16 16 16 17 15 14 13 12 12 11 11 11 10 10 11 10 16 21 15 14 17 15 15 15 13 12 11 10 10 12 13 13 14 12 15 21 18 13 11 11 9 6 5 6 5 2 2 0 1 1 1 4 7 3 6 5 5 12 10 3 7 9 11 9 19 27 26 23 24 26 26 26 27 28 29 30 31
13 14 14 13 14 14 14 14 14 14 15 16 16 16 16 15 14 13 12 10 10 10 10 10 10 8 9 19 19 13 16 21 22 20 17 15 13 11 10 8 11 12 12 13 12 14 19 18 13 9 9 8 6 3 3 4 3 2 0 3 3 2 5 8 4 5 5 4 8 8 2 6 9 7 8 22 28 28 26 25 26 26 27 28 28 30 30 29
13 14 14 13 14 14 14 14 15 14 15 15 15 16 15 14 14 13 11 9 8 9 8 7 8 7 7 13 12 11 17 23 24 20 17 16 14 11 7 7 9 10 9 11 12 15 19 15 10 9 6 5 3 2 3 4 4 3 1 2 3 0 2 5 5 3 5 3 2 4 3 4 6 2 9 23 29 27 25 24 26 28 28 29 28 29 29 28
14 14 14 13 14 14 14 14 14 14 14 15 15 15 13 13 13 11 8 7 7 7 6 3 2 5 9 10 10 12 16 20 21 19 19 17 14 10 8 10 11 9 9 10 10 13 15 11 7 6 3 2 3 4 2 3 3 3 2 0 3 1 1 2 4 6 1 2 2 3 3 7 8 3 11 20 28 25 23 24 26 27 27 27 27 29 29 29
14 14 14 13 14 14 14 14 14 13 13 14 14 13 11 12 11 9 8 8 6 4 5 5 5 1 11 16 14 9 6 11 17 18 18 17 13 10 11 12 10 9 8 6 7 10 11 7 3 2 1 2 3 5 4 5 4 2 1 1 2 2 1 1 3 4 3 1 3 3 4 10 13 4 9 15 26 27 24 25 25 25 26 26 27 29 30 29
14 14 13 14 14 14 14 14 13 12 13 13 12 10 8 7 7 7 9 11 10 6 2 9 14 5 4 9 13 9 1 6 13 15 15 15 14 13 14 13 9 9 8 3 5 8 8 3 3 3 2 4 4 5 6 6 7 6 3 3 1 3 3 3 5 6 3 4 5 5 6 10 12 9 2 5 17 24 19 18 20 21 23 26 27 29 29 30
15 14 13 14 14 14 14 13 12 11 11 11 8 6 4 3 3 3 8 14 18 15 8 11 20 17 7 2 3 6 2 6 11 14 15 15 15 15 15 14 9 7 7 4 5 6 6 4 2 5 6 6 6 7 8 6 5 4 2 1 2 3 4 5 5 6 3 3 8 6 8 10 10 9 5 3 7 15 13 11 15 20 25 28 28 26 28 30
15 14 13 14 14 14 13 12 11 9 10 11 8 5 4 2 1 0 4 12 18 21 21 20 21 25 23 14 9 8 5 3 9 13 15 16 17 13 13 13 6 4 4 5 5 2 4 5 5 7 8 7 6 6 7 5 4 2 1 1 4 2 4 7 4 6 2 3 7 3 5 9 9 7 6 4 4 9 15 17 18 23 26 26 25 25 26 28
15 14 13 14 14 13 13 11 9 7 9 10 8 7 4 2 1 1 4 9 16 19 23 25 25 29 32 26 22 16 7 3 7 12 15 18 19 12 10 8 5 3 2 3 4 2 2 4 7 8 7 5 4 4 7 5 5 3 2 1 2 3 4 7 5 5 1 4 6 2 6 7 6 5 6 5 3 7 16 24 25 29 28 26 26 26 25 25
15 14 13 14 13 13 12 9 8 7 9 10 8 6 3 6 4 5 7 8 12 16 19 23 26 31 32 26 20 14 7 4 6 13 19 19 19 16 10 7 5 5 3 4 5 3 2 5 8 6 6 6 3 3 7 5 3 3 3 3 2 4 1 3 5 6 4 1 3 3 4 4 5 5 6 8 11 9 6 16 19 22 24 24 21 17 16 18
15 14 14 13 13 13 10 8 8 8 10 10 5 3 4 7 4 4 6 5 7 11 16 20 23 27 30 21 12 10 10 7 6 13 22 22 19 16 10 7 6 5 4 5 7 5 5 6 4 7 7 7 4 3 6 5 1 2 4 5 3 3 4 5 4 7 6 4 2 6 4 4 4 6 5 8 14 16 11 4 6 9 14 13 7 5 7 11
15 14 14 13 13 12 9 8 8 9 9 6 2 3 6 7 3 1 3 3 4 6 8 13 16 23 27 17 9 9 6 7 11 14 20 25 23 14 8 7 6 4 5 6 7 5 8 6 4 7 5 6 5 4 4 6 3 3 4 8 7 6 6 4 4 5 4 5 4 6 4 4 4 6 5 6 9 13 16 12 9 9 7 6 2 4 6 9
15 14 13 13 12 11 9 6 5 6 6 3 2 3 5 5 1 2 2 2 3 3 2 7 11 14 18 15 14 10 3 5 17 16 19 25 26 17 8 5 4 4 6 6 4 3 4 5 6 7 5 5 5 5 4 7 5 2 5 8 9 8 5 3 2 2 2 1 3 4 5 2 5 6 6 6 6 8 13 13 15 16 8 2 5 7 8 9
15 14 13 12 11 10 8 5 5 6 4 3 2 2 2 1 3 3 2 3 3 4 4 6 9 8 12 17 21 14 3 5 14 14 20 24 24 19 9 4 3 4 5 5 2 3 3 6 6 6 6 5 5 4 5 8 7 3 6 7 8 7 6 5 3 3 2 3 4 4 4 3 3 4 5 6 4 7 13 11 13 18 16 11 11 10 9 10
14 14 13 11 9 9 9 8 7 5 3 3 3 2 2 3 5 4 2 2 1 4 3 5 8 6 9 16 25 17 2 8 11 10 22 25 22 17 8 5 7 5 5 6 3 4 3 6 7 7 5 4 5 5 7 9 6 7 7 6 7 7 7 6 5 3 1 1 3 6 2 4 2 5 5 6 4 8 12 11 11 15 18 17 16 13 10 11
14 13 12 11 9 8 10 10 6 3 3 4 3 3 3 5 4 2 2 0 2 2 1 6 7 6 9 14 21 18 7 8 8 10 22 25 21 15 8 9 9 5 5 6 6 4 2 6 8 7 5 5 8 6 10 12 6 8 5 5 4 3 4 4 5 4 3 4 2 7 1 3 2 5 5 6 4 6 7 7 8 12 18 19 19 18 13 11
14 12 11 11 9 8 11 10 5 3 4 5 4 2 3 5 3 2 1 2 2 1 2 7 7 7 13 11 11 14 7 3 6 11 18 19 19 14 9 11 7 5 2 2 4 5 3 3 3 5 6 8 9 6 11 15 9 3 3 4 4 5 4 4 3 4 4 1 5 7 1 5 1 4 3 3 3 4 4 5 7 11 17 19 19 18 15 12
13 12 11 12 10 9 10 7 3 5 4 5 4 2 3 4 2 2 3 2 1 0 2 4 4 7 13 10 8 10 5 1 5 11 10 9 12 8 4 5 3 4 1 3 2 4 4 1 1 5 11 9 5 3 8 12 7 4 3 4 3 2 4 4 4 4 4 2 6 6 2 7 2 3 2 3 3 5 6 6 6 9 13 16 17 16 15 13
12 12 11 12 12 11 8 1 4 7 4 4 4 3 3 2 0 2 3 4 2 1 1 3 3 5 10 9 7 8 5 2 3 7 6 4 6 5 2 4 4 3 1 4 2 4 3 3 3 4 8 8 5 1 2 4 3 4 4 5 4 1 2 1 3 1 2 3 4 4 2 4 1 1 2 3 4 7 8 7 7 9 12 15 16 16 15 13
11 11 11 12 13 13 8 3 7 8 5 4 5 3 3 2 3 3 3 3 1 3 3 2 3 4 9 8 5 6 5 3 3 4 5 5 5 6 4 3 5 5 2 4 2 2 3 5 4 2 5 6 8 4 1 3 4 6 5 5 5 3 3 1 2 0 2 3 4 4 1 2 1 1 1 2 4 5 8 9 7 10 13 14 16 16 16 14
11 12 13 12 13 12 7 7 10 8 6 7 5 2 2 2 3 2 2 3 1 4 4 3 5 6 8 7 5 6 4 2 4 5 4 4 5 5 4 1 4 5 3 3 2 3 2 4 4 3 3 5 8 7 7 7 6 5 4 6 5 5 4 3 3 3 3 2 2 2 1 2 2 1 1 3 4 5 9 9 8 11 13 15 17 17 17 17
11 12 13 13 12 9 7 12 14 10 9 8 4 1 2 3 3 1 2 3 0 2 5 1 6 6 5 3 3 7 5 1 3 5 4 5 5 5 5 4 4 4 4 3 2 2 4 4 7 5 3 4 6 6 6 8 5 2 2 6 3 5 5 2 3 5 5 2 2 2 1 0 2 3 3 4 4 6 8 9 10 13 14 16 18 18 18 17
11 10 12 11 7 7 10 16 17 13 12 8 4 2 4 3 3 2 2 3 2 3 5 2 4 5 3 1 2 6 4 2 4 4 2 4 4 5 5 4 6 6 5 4 2 1 4 4 7 3 3 4 7 7 6 7 5 1 2 4 3 4 7 5 2 1 3 4 0 0 3 1 1 2 2 4 6 7 8 8 11 12 14 17 17 17 18 17
11 8 8 7 5 8 11 17 18 15 12 7 3 3 4 3 4 3 3 5 7 5 2 1 2 3 3 3 2 5 4 2 3 3 2 2 2 4 5 4 6 9 8 6 3 2 4 3 6 1 3 7 6 6 2 3 6 4 3 5 2 3 5 4 2 2 4 4 2 1 3 3 2 2 3 5 7 7 7 7 9 10 12 14 14 15 16 16
11 8 5 3 7 9 12 18 19 15 9 4 2 3 2 3 4 4 6 8 7 3 1 1 2 2 3 4 2 3 5 3 4 4 3 2 2 4 5 3 5 9 12 10 4 2 3 0 7 3 3 4 1 5 3 4 4 4 5 5 4 3 1 1 2 2 2 3 1 3 1 3 3 2 5 7 8 8 6 6 7 8 10 11 12 14 15 15
9 8 4 4 8 7 12 19 19 13 6 2 3 3 2 4 6 10 13 10 4 1 2 0 1 3 2 4 2 2 5 6 5 4 3 3 3 2 2 3 4 7 11 11 5 2 3 2 5 5 3 1 3 3 2 1 4 4 4 2 2 3 4 2 2 3 4 3 1 2 1 2 3 2 4 8 9 8 7 5 5 7 10 11 11 13 14 14
5 5 2 6 7 7 15 19 15 9 2 2 3 3 3 4 8 15 19 13 3 1 1 0 2 3 1 2 3 2 3 5 5 3 1 3 2 2 2 2 2 4 9 10 6 1 2 3 2 5 4 1 1 1 6 7 3 2 3 1 1 1 2 2 1 2 4 4 3 3 1 4 3 2 2 6 8 8 8 6 5 7 10 11 11 12 13 12
3 3 1 6 7 12 20 16 7 3 1 1 2 2 3 6 8 13 20 16 5 2 1 1 2 3 1 2 2 1 2 4 4 2 1 2 3 1 2 0 1 4 6 6 4 2 1 2 3 3 4 2 2 5 5 8 6 4 3 3 3 3 4 3 0 1 2 4 4 5 2 4 3 1 1 4 7 8 9 8 6 7 9 11 12 12 12 12
3 0 3 6 12 20 20 9 0 1 1 2 3 4 5 7 6 7 14 14 6 1 1 2 2 2 2 1 1 2 3 3 2 3 2 2 3 1 4 8 3 5 7 3 3 3 3 4 3 2 1 2 5 5 1 6 9 7 3 2 3 4 5 5 3 3 1 3 2 3 3 3 3 2 5 5 8 11 11 9 7 7 10 11 12 11 11 11
2 2 4 9 17 19 11 2 1 1 2 4 5 7 7 5 4 5 8 7 4 3 3 2 2 2 2 2 2 3 3 3 4 3 4 3 3 3 8 9 3 4 6 2 1 0 2 4 3 1 2 4 5 5 4 5 8 6 3 3 3 1 3 5 5 3 3 3 2 3 2 2 1 4 8 9 12 15 13 9 6 7 10 12 12 11 11 11
1 2 5 12 18 12 3 1 2 1 3 4 4 6 7 6 5 6 5 3 3 2 2 2 2 3 2 2 3 4 3 4 4 4 4 4 2 7 12 10 2 1 3 3 4 2 1 1 3 3 2 3 4 4 5 5 4 3 2 4 3 1 4 4 2 3 3 3 4 5 2 2 1 5 8 9 11 14 12 10 8 9 11 12 12 11 11 12
2 1 6 14 18 10 3 2 2 1 2 2 3 5 5 5 6 8 6 3 3 1 2 2 2 2 3 3 4 5 6 5 3 2 3 3 1 5 12 13 8 4 5 5 6 5 3 2 3 5 4 3 2 2 2 0 2 3 3 4 5 3 4 4 3 4 2 2 3 5 4 2 3 6 8 7 8 10 11 9 8 8 10 10 11 11 11 12
1 0 5 9 14 12 8 5 1 2 2 1 2 3 3 3 4 4 2 1 4 4 4 3 3 3 5 5 5 6 8 7 4 3 3 3 1 3 10 14 12 8 8 10 8 4 4 3 2 5 5 5 5 3 3 1 4 2 3 5 5 4 2 4 4 3 5 4 2 1 6 8 7 7 7 6 6 8 8 7 7 7 8 9 10 10 10 11
1 1 3 4 6 8 8 8 3 3 2 1 1 3 3 3 3 2 3 2 3 5 4 4 6 4 2 4 5 4 6 6 6 5 3 3 1 2 9 13 12 12 8 8 9 4 5 4 3 4 5 2 2 3 4 5 5 4 3 5 6 5 5 6 4 2 5 7 1 3 8 11 8 6 6 6 5 7 7 6 6 6 7 7 8 9 9 10
2 1 2 4 3 4 4 5 5 5 4 2 1 3 3 2 1 1 2 2 4 6 4 4 8 6 2 3 5 3 5 5 6 4 2 4 2 3 8 8 9 13 9 6 8 5 6 3 3 3 7 8 6 6 7 8 7 6 6 5 6 7 8 7 3 2 1 4 5 8 10 8 6 6 5 5 5 6 7 7 6 5 5 6 7 9 10 11
2 2 1 3 1 3 5 4 4 5 5 4 2 3 3 1 2 1 1 2 5 7 5 4 5 7 6 5 6 3 2 2 3 2 0 2 3 2 3 4 6 11 9 5 5 3 4 3 3 4 7 8 8 6 5 8 6 6 9 7 6 8 10 10 6 4 5 5 8 13 12 6 4 5 5 6 6 6 8 9 7 6 6 6 8 9 10 12
1 1 1 1 2 3 4 4 3 4 3 4 3 4 3 1 2 2 3 3 2 3 5 7 5 6 7 8 8 4 2 5 5 2 2 3 2 2 2 1 1 6 7 4 2 3 4 3 1 3 6 6 7 6 6 7 9 8 9 9 7 7 8 8 6 6 8 7 9 12 10 4 2 5 7 7 6 7 8 9 8 8 7 7 8 9 10 12
2 2 3 2 2 1 3 3 3 4 1 2 4 3 2 1 1 2 4 5 4 3 3 7 7 5 6 9 9 5 4 6 7 4 4 4 2 2 1 2 3 2 4 3 2 3 4 4 1 4 5 1 2 4 5 6 9 9 8 9 9 7 5 5 4 3 3 8 12 10 6 3 4 6 7 6 7 9 8 7 8 8 7 7 7 8 10 12
3 2 2 1 1 1 2 1 2 3 2 3 5 3 1 2 2 4 4 6 8 8 9 11 7 5 6 7 6 3 3 4 6 4 3 6 9 9 8 7 6 5 2 2 2 3 2 5 3 3 4 2 1 1 3 3 4 4 4 6 5 3 5 6 6 6 4 6 9 5 3 5 6 7 6 5 7 8 6 6 7 6 5 6 6 7 9 11
Wind_Direction
299 296 290 286 280 270 262 261 260 260 263 263 264 265 266 267 267 268 268 270 271 272 272 270 270 272 275 280 282 282 281 279 275 269 259 249 242 241 238 230 224 225 214 202 207 211 210 210 203 197 196 194 204 205 205 213 208 198 169 143 193 206 209 200 203 214 178 267 293 316 5 66 36 53 102 116 110 109 122 99 117 184 190 182 183 159 166 173
292 294 293 290 283 273 268 263 260 261 262 263 265 266 268 269 270 270 272 275 275 274 273 272 272 273 277 284 286 288 287 286 284 269 254 251 253 245 234 229 224 225 221 212 214 216 214 210 197 194 196 192 200 199 201 210 202 198 134 137 211 207 215 224 224 265 282 267 299 304 329 35 70 79 130 134 86 109 104 82 100 115 138 165 165 160 168 174
290 290 291 289 285 279 275 267 264 263 262 264 265 266 267 269 272 274 278 279 278 276 274 274 273 275 281 284 288 293 296 300 293 269 257 259 256 243 232 225 221 223 224 221 224 225 222 210 197 194 191 192 197 192 196 193 196 207 182 175 234 209 236 264 260 273 279 280 300 301 321 5 55 72 140 142 109 99 129 142 122 122 141 154 158 163 172 175
290 291 289 285 282 277 273 269 265 263 264 267 266 268 268 269 273 275 280 280 278 276 273 274 274 277 281 283 288 295 308 314 292 269 263 260 242 233 227 221 218 219 218 215 219 219 213 202 197 193 185 198 208 202 214 200 196 201 185 199 234 195 228 263 263 270 280 293 295 276 322 345 13 69 139 136 109 327 227 184 180 166 159 157 161 169 175 176
292 292 291 289 285 277 271 267 265 264 266 268 268 270 270 271 272 275 279 276 274 272 271 273 274 278 278 279 285 290 322 336 285 256 249 234 228 228 221 219 218 216 214 212 210 203 198 190 187 185 184 205 203 203 229 218 215 216 218 228 235 216 240 261 266 277 287 298 290 271 29 319 346 86 144 148 140 229 219 195 192 179 167 163 167 172 175 177
294 294 290 288 286 281 275 268 266 267 267 268 269 269 271 272 272 275 276 271 270 269 269 270 272 276 274 277 280 273 248 246 251 175 182 199 219 221 214 215 215 213 213 208 205 198 193 182 176 179 177 182 196 201 223 225 220 240 270 252 247 240 244 265 271 277 285 288 277 268 204 263 344 42 159 169 197 204 207 203 187 177 172 170 171 174 177 179
294 296 292 286 279 276 275 271 268 268 268 269 270 270 272 272 271 273 272 271 268 266 267 267 269 271 270 273 270 257 233 243 251 199 197 189 183 203 202 205 206 210 210 203 200 198 191 182 180 178 159 161 207 215 236 240 213 206 266 269 266 259 253 267 269 264 265 265 270 268 254 263 319 319 177 173 200 191 198 202 181 174 172 172 173 176 179 182
291 293 293 290 283 278 273 271 269 269 271 273 275 275 274 273 271 271 270 270 268 267 267 265 267 266 265 266 266 266 247 249 255 231 239 262 171 179 189 194 200 209 213 208 202 198 191 186 186 177 156 204 202 202 227 248 226 195 244 262 270 269 263 268 269 263 259 260 267 261 234 241 240 298 288 230 182 180 195 189 175 173 172 174 176 178 180 185
291 290 290 288 285 282 276 272 271 272 274 275 278 279 277 275 272 271 270 269 268 267 265 264 263 260 260 258 264 275 254 256 264 241 237 243 215 179 184 191 200 211 214 209 204 203 197 192 190 182 182 224 216 220 202 213 241 198 223 248 262 268 266 267 265 261 258 255 255 247 248 246 225 226 284 256 180 177 190 178 173 174 174 175 178 180 183 186
296 293 292 290 284 278 274 272 272 273 275 276 278 280 280 275 272 273 272 271 269 267 265 263 259 256 257 251 234 251 256 258 252 225 220 223 205 187 184 186 197 208 209 204 202 202 199 196 193 189 206 241 227 233 210 196 225 213 227 250 257 262 266 262 258 257 251 244 233 214 236 244 218 188 258 201 159 174 176 169 175 177 176 178 180 182 187 190
297 292 288 289 287 280 273 272 273 274 275 276 280 282 281 277 275 274 273 272 266 265 264 260 259 255 252 242 219 225 251 252 222 207 204 204 196 192 196 197 204 209 208 209 206 200 200 198 187 182 211 243 244 231 216 215 240 266 278 289 269 265 268 255 251 250 232 232 229 209 218 252 226 202 222 160 160 176 170 168 178 180 178 180 181 183 189 193
297 297 291 284 283 281 276 274 275 278 278 279 284 286 283 278 275 273 271 271 264 263 263 261 258 251 248 242 234 230 238 242 206 192 190 187 193 209 226 237 240 235 226 220 212 205 202 197 186 199 230 226 275 245 225 253 290 292 304 310 289 316 306 254 249 228 200 211 218 192 232 279 234 227 212 167 168 177 171 173 182 184 181 182 185 184 190 195
296 299 298 290 285 279 274 274 276 281 281 281 286 288 285 278 274 272 268 265 262 262 262 259 252 251 251 246 243 236 230 237 218 192 188 187 196 214 230 241 242 242 242 237 229 214 203 197 201 233 266 259 260 279 280 301 313 292 265 166 288 353 336 271 268 192 186 197 176 156 262 267 244 245 212 168 171 171 167 175 183 186 182 185 189 186 191 198
299 301 300 295 290 282 275 274 276 280 283 283 286 288 286 279 272 268 264 262 260 261 260 256 250 247 245 247 250 247 235 233 221 200 192 192 195 209 222 231 231 227 233 236 236 219 202 202 219 252 273 261 256 282 304 330 356 290 255 164 314 28 278 290 303 155 159 216 174 152 255 259 263 261 204 172 176 171 169 180 186 187 186 189 192 189 193 200
301 302 299 295 291 285 279 277 278 281 284 286 286 288 286 280 271 262 260 258 255 257 252 252 248 238 255 263 261 254 237 227 215 201 195 200 201 208 216 222 223 212 216 222 220 212 201 206 228 255 264 243 242 284 329 347 3 23 31 295 329 153 252 302 316 168 169 225 178 160 239 266 277 285 174 175 179 176 177 185 189 189 189 191 194 192 194 201
299 299 297 295 292 286 281 280 282 283 288 288 286 288 287 277 266 258 256 252 251 253 245 252 249 234 269 276 261 242 233 223 213 204 201 205 203 207 215 216 208 196 199 205 204 205 202 212 240 247 233 194 170 95 41 346 338 6 98 240 285 202 273 311 327 270 201 186 187 191 212 271 282 20 142 175 180 179 182 188 192 192 192 193 194 194 194 199
302 299 298 297 292 287 283 283 285 286 291 290 287 289 285 273 264 257 248 235 234 230 216 204 221 241 255 264 258 239 231 224 215 207 206 208 204 202 209 205 195 187 191 192 197 207 209 220 238 235 222 145 116 101 97 285 291 322 11 216 258 230 280 296 315 327 10 155 237 212 210 252 255 107 121 173 184 183 188 193 194 193 194 194 193 195 196 197
304 303 300 295 291 288 285 286 287 287 289 290 292 293 283 270 260 247 229 213 196 181 206 194 136 322 256 247 247 238 217 217 213 208 208 212 208 202 203 201 197 193 188 185 200 207 215 223 197 172 112 123 129 115 158 219 199 205 358 46 314 315 310 262 272 306 3 293 225 177 227 255 261 247 129 172 192 193 196 197 195 194 193 195 196 197 199 198
304 304 302 297 291 287 286 289 288 287 290 291 294 297 289 269 244 234 221 199 183 164 197 200 181 179 282 238 230 235 213 189 201 205 207 208 206 202 204 206 210 194 166 141 205 201 197 186 126 149 182 189 176 147 172 194 165 160 158 135 303 313 294 268 258 261 290 297 252 197 223 250 266 267 204 166 200 201 201 197 192 194 195 197 200 200 201 201
301 299 299 298 292 288 289 290 287 291 295 291 292 292 275 237 208 221 213 208 214 218 232 219 206 219 264 348 211 237 245 178 188 202 203 200 199 201 208 211 209 182 154 143 190 195 176 161 170 191 196 195 189 171 165 158 144 148 117 90 279 290 293 279 272 284 288 275 264 224 214 249 262 265 297 27 188 192 186 186 190 195 200 202 203 201 201 203
302 301 300 297 292 292 290 287 287 294 292 289 294 276 243 219 157 90 225 235 245 242 243 249 243 245 256 265 265 279 301 207 187 193 197 197 195 197 207 204 180 167 187 166 153 141 157 176 218 213 201 187 181 176 152 127 113 105 125 284 296 270 268 272 267 302 287 181 268 244 184 246 255 269 314 55 147 183 176 179 192 201 205 207 208 205 203 205
302 302 301 298 296 293 288 287 288 287 281 278 274 253 248 8 29 331 308 276 271 259 246 249 255 257 256 256 259 270 289 261 202 191 188 191 194 195 193 179 157 182 194 139 119 63 137 211 235 216 191 160 140 139 131 121 116 106 127 146 293 264 279 290 283 307 302 172 264 236 168 240 271 305 346 30 311 247 195 188 195 202 206 211 212 209 206 203
301 297 297 296 296 291 284 287 284 272 267 261 258 252 300 355 311 275 290 283 280 267 246 240 243 249 253 254 255 250 227 211 217 200 188 186 193 195 181 154 165 173 130 133 145 125 170 242 236 194 149 150 163 133 121 106 111 134 153 147 248 262 288 297 291 317 333 236 245 152 155 273 329 8 19 9 350 341 235 209 205 204 207 214 218 214 206 195
303 300 300 297 295 292 286 284 274 263 263 257 263 294 345 354 327 273 267 262 279 267 247 241 238 242 248 249 245 229 214 211 218 202 193 188 186 189 187 162 154 156 155 161 149 161 223 244 199 137 137 166 188 182 139 135 230 235 199 175 194 240 221 227 280 324 335 340 28 91 58 321 349 33 24 359 11 21 8 299 243 240 229 233 243 218 197 181
302 300 302 300 295 294 290 288 271 257 260 255 274 336 359 1 352 260 253 262 277 268 256 240 231 239 241 236 226 213 208 224 224 207 196 195 187 178 182 171 155 169 185 159 141 189 241 237 142 121 145 167 175 216 179 159 190 281 232 190 188 218 233 256 311 352 16 358 3 78 67 299 327 30 20 351 11 20 16 22 9 336 274 259 8 141 160 158
302 302 303 298 294 294 295 291 258 241 247 241 279 335 353 356 31 188 187 14 300 242 205 200 207 228 222 211 209 192 95 246 226 211 199 199 194 179 167 166 154 179 179 150 149 212 233 196 157 144 156 158 172 225 215 159 145 268 237 181 178 206 218 246 288 48 74 314 338 76 113 236 324 9 2 348 4 20 24 27 20 16 13 27 98 135 154 156
301 302 302 296 292 296 297 272 224 228 229 225 263 310 332 201 142 150 135 18 296 194 142 177 190 199 198 197 193 173 80 217 206 208 202 198 194 182 176 181 156 173 165 129 183 232 176 168 169 156 148 151 178 224 208 156 132 236 239 154 154 188 189 190 151 102 195 235 332 11 109 127 334 327 335 345 1 31 35 32 23 27 35 54 82 110 139 153
300 301 300 293 286 288 285 259 232 230 222 231 250 222 174 167 160 145 112 15 239 159 134 180 181 184 190 185 179 173 182 175 169 205 202 194 190 178 175 193 169 171 163 136 190 241 160 166 180 166 152 166 198 204 178 150 144 242 237 147 156 178 170 169 127 104 318 68 329 314 39 100 285 288 334 5 28 36 37 37 28 28 37 47 57 69 96 130
298 299 296 286 278 274 270 261 244 220 222 238 239 217 182 166 166 119 92 271 168 141 136 164 163 174 164 157 171 186 202 170 164 189 187 187 188 179 188 200 173 155 176 169 194 231 198 190 185 158 151 201 217 198 158 157 187 244 225 128 100 89 115 118 107 114 45 59 239 270 296 118 251 297 347 10 21 22 25 37 35 36 44 50 54 57 68 102
294 292 289 280 276 267 264 267 250 205 229 239 234 225 172 159 136 82 153 243 200 174 113 153 164 165 153 142 170 195 204 172 149 156 168 176 182 185 191 192 167 120 172 235 212 233 269 229 178 158 186 214 217 191 164 179 191 191 169 126 73 34 48 53 63 99 80 15 248 253 200 115 217 296 1 358 338 357 10 36 39 39 46 50 55 61 67 82
290 289 284 276 275 268 270 278 220 193 218 236 235 218 165 153 83 126 202 275 281 183 102 160 179 148 154 157 170 188 195 136 132 141 158 168 174 186 153 158 148 91 111 291 269 282 320 344 202 211 217 215 200 186 181 192 189 105 111 134 126 337 20 31 355 53 100 244 262 249 128 99 157 265 352 336 347 27 29 34 38 39 46 46 47 54 63 71
289 287 276 271 272 263 261 261 163 183 203 227 220 193 149 126 322 212 250 323 349 250 200 169 186 154 160 164 168 177 156 133 151 141 151 141 155 196 157 153 169 115 197 241 260 326 319 241 262 260 231 201 152 185 201 181 170 125 106 99 119 214 29 40 296 47 150 242 255 223 113 78 155 256 352 332 2 32 34 32 35 50 58 56 52 51 54 60
289 284 274 268 268 258 244 189 180 186 192 198 192 178 109 112 223 221 264 312 355 263 259 146 150 148 152 158 175 175 138 151 188 143 150 140 140 199 210 166 151 127 177 207 177 343 317 290 293 309 254 199 152 152 164 157 171 167 152 125 131 127 101 205 264 127 204 249 245 227 99 72 230 264 3 6 17 36 49 45 42 58 67 67 63 58 55 54
290 287 276 262 260 258 236 199 197 189 183 179 160 133 119 196 241 195 232 273 276 267 268 139 132 137 153 166 168 158 141 183 180 130 136 141 134 194 220 202 152 126 123 158 150 161 184 286 254 195 231 185 163 180 180 157 154 176 166 133 140 148 140 194 206 163 199 235 276 294 57 145 188 182 41 53 44 50 64 64 62 64 66 69 65 61 58 56
295 287 276 264 258 253 219 196 196 185 178 172 136 116 191 226 258 171 224 281 31 279 297 113 133 137 160 174 151 165 163 172 163 135 147 163 158 188 194 196 189 143 121 162 203 160 159 238 247 236 237 170 174 196 163 131 131 216 141 106 137 177 144 133 182 172 174 160 1 354 55 28 154 121 86 92 87 71 73 72 68 62 59 62 60 57 58 57
299 285 273 269 250 226 204 193 189 182 179 166 130 204 220 235 253 215 266 305 294 280 308 320 132 128 153 146 172 190 169 109 152 146 159 176 172 186 186 196 191 167 145 160 206 149 136 253 275 282 271 225 194 185 160 153 166 155 116 147 195 168 125 116 192 212 112 128 219 271 123 86 119 126 116 121 110 95 89 74 63 58 55 58 56 56 59 59
308 297 276 261 210 198 197 189 183 181 181 168 154 220 232 244 245 241 285 304 291 278 285 170 124 116 153 160 195 194 155 110 161 163 186 183 190 199 196 211 184 177 180 170 204 214 143 259 286 226 241 257 204 162 120 131 139 119 166 189 154 87 92 108 148 8 55 134 243 322 136 165 178 159 156 141 121 113 107 79 64 58 56 59 57 57 62 62
321 325 310 221 191 192 185 182 180 177 174 168 223 246 239 247 266 290 303 305 298 299 54 119 139 107 137 154 203 189 151 162 187 165 168 201 241 197 176 193 185 187 190 172 184 257 129 270 289 248 224 274 102 106 55 18 72 121 166 161 113 117 167 98 135 136 107 156 250 357 54 183 177 173 168 151 133 121 104 72 63 58 54 54 48 47 56 61
334 337 351 148 180 191 178 176 176 172 162 155 213 244 249 261 286 299 307 311 298 331 26 13 129 76 98 140 157 170 158 176 188 165 144 174 223 229 167 181 187 189 184 167 167 241 126 117 284 275 257 305 37 76 172 268 5 64 100 93 86 137 160 159 148 151 149 170 187 49 6 238 211 215 178 150 136 125 112 89 71 62 53 46 40 39 46 53
339 333 5 146 166 175 167 165 164 165 170 183 202 251 290 307 299 299 312 320 292 208 346 253 101 71 79 132 129 164 166 164 167 159 121 134 139 292 239 172 153 166 167 166 172 204 99 124 240 288 325 42 94 233 191 184 175 112 101 119 220 97 120 151 119 115 135 151 160 132 232 261 247 247 191 150 134 126 123 114 85 66 58 48 42 42 43 46
351 330 160 153 155 156 154 150 153 172 199 226 219 262 297 317 303 299 318 325 299 236 240 160 100 94 113 90 79 77 129 137 139 119 74 92 104 177 249 6 127 151 141 151 168 166 145 144 184 283 353 50 250 278 215 173 154 146 149 164 171 138 120 131 206 287 109 117 157 156 178 266 264 195 119 117 115 111 110 112 100 74 62 52 46 44 42 42
355 295 171 159 152 151 148 137 138 199 169 243 275 299 289 301 296 291 318 325 316 318 12 63 77 80 60 60 85 64 81 100 88 96 103 77 101 158 319 339 358 127 119 134 188 179 145 111 134 243 322 236 266 309 8 125 103 95 104 99 116 129 126 133 184 244 87 91 123 118 108 275 272 108 94 86 90 89 87 96 101 73 57 49 43 42 43 41
329 143 147 159 155 151 144 103 331 251 256 269 293 296 275 273 288 295 311 319 334 10 20 19 39 66 36 18 65 58 64 70 50 74 110 84 46 353 341 340 345 95 93 125 203 123 108 100 115 234 322 306 289 329 16 62 79 80 45 34 73 132 135 141 169 177 131 141 130 81 75 262 262 97 98 92 85 80 72 68 70 55 45 42 36 36 39 38
275 145 137 162 165 157 135 148 162 213 261 283 299 284 270 257 253 271 286 304 326 353 56 16 12 62 40 16 62 50 46 71 48 34 77 93 15 352 7 19 34 73 75 151 172 152 157 114 108 114 61 348 330 345 357 10 46 71 20 354 357 58 103 118 126 83 105 176 146 117 164 233 140 103 98 93 88 83 72 57 46 37 32 31 30 31 32 32
310 132 137 165 181 197 254 195 150 181 245 294 297 273 275 263 238 240 251 297 343 14 92 18 354 63 40 29 58 34 33 74 81 24 48 65 29 350 9 27 50 72 79 100 121 131 126 99 118 129 146 172 184 227 244 287 50 44 14 1 4 40 105 131 124 92 134 190 113 123 174 165 129 122 107 99 98 91 78 60 44 33 26 23 26 29 27 28
310 159 130 158 188 212 245 253 204 162 206 242 281 271 256 247 254 248 233 356 6 32 64 18 359 51 34 37 64 34 25 51 69 65 63 44 29 340 5 27 42 44 59 68 68 102 110 69 96 127 141 180 189 207 231 136 97 63 360 358 2 1 44 105 115 145 167 146 58 200 164 144 150 149 120 106 101 95 85 66 44 32 22 16 24 28 26 29
279 267 129 137 186 209 243 263 237 188 218 168 223 276 267 254 276 5 48 39 19 40 56 19 15 47 45 53 82 45 12 30 44 49 49 29 25 342 15 34 34 18 28 45 29 53 107 48 11 80 78 81 120 81 43 58 84 89 35 358 0 11 40 81 99 175 150 127 136 225 156 142 152 145 117 113 106 98 93 77 55 36 20 15 23 28 29 32
225 265 146 137 172 198 220 247 220 209 256 281 277 287 296 320 359 32 15 14 23 32 54 27 10 25 65 94 106 73 6 25 33 24 22 23 14 345 10 24 22 18 32 39 21 62 114 50 347 70 62 42 43 53 67 79 79 67 56 25 12 37 62 77 75 288 163 143 170 164 142 133 130 117 107 109 105 106 107 97 81 58 36 28 29 29 29 32
210 270 208 142 153 209 198 210 197 202 235 232 237 277 261 358 32 343 316 38 19 9 55 85 15 19 48 79 102 87 28 88 67 16 31 47 32 39 28 4 0 17 35 48 25 57 108 55 2 81 73 41 20 16 55 90 91 55 43 33 28 57 72 74 69 58 68 94 130 130 119 97 88 104 104 101 103 109 108 99 86 63 42 36 34 28 25 27
190 4 356 32 326 241 218 227 190 179 221 211 218 264 243 151 44 359 6 57 82 356 47 94 84 52 58 70 86 92 162 152 129 110 148 112 54 78 109 199 314 12 24 40 10 13 82 105 314 67 71 28 11 31 54 80 93 71 38 23 22 42 61 63 64 66 67 78 101 110 109 95 86 106 105 102 99 87 78 76 72 57 42 41 35 23 20 22
252 357 9 350 315 250 220 224 161 144 208 218 214 244 240 203 148 106 30 29 87 108 109 125 114 72 54 59 73 101 173 146 122 123 137 119 93 92 101 177 172 70 23 27 3 7 69 112 119 65 77 21 3 71 63 64 81 71 38 16 11 22 52 60 53 47 90 125 120 113 120 144 143 125 108 92 84 79 68 64 67 57 43 43 34 20 20 22
243 278 307 241 267 280 223 188 115 139 197 206 204 221 214 218 191 117 72 18 41 83 126 136 119 72 55 57 67 106 143 102 78 65 80 89 88 85 79 82 95 103 121 106 37 20 100 133 137 98 99 146 221 53 26 29 66 59 11 350 346 27 79 69 43 28 49 129 133 133 144 135 134 134 121 95 81 76 66 62 65 58 49 46 36 28 28 28